Location: Chanteloup
(48.8560°N, 2.7390°E)
Time: 17:41:34
(UTC+00:00)

Cosmos 1758 Rocket - Pass Details

Date: 31 May 2022
Orbit: 601 x 635 km, 82.5° (Epoch: 27 June)

Event Time Altitude Azimuth Distance (km) Brightness Sun altitude
Rises 02:27:21 0° 144° (SE) 2,870 6.8 -10.7°
Reaches altitude 10° 02:30:15 10° 124° (ESE) 1,965 6.2 -10.4°
Maximum altitude 02:32:57 17° 85° (E) 1,582 6.3 -10.1°
Drops below altitude 10° 02:35:41 10° 46° (NE) 1,965 7.8 -9.8°
Sets 02:38:34 0° 25° (NNE) 2,870 8.8 -9.5°
